Moses Lake, Washington, United States (98837)
Lat: 47.13N, Lon: 119.28W
Wx Zone: WAZ034
Local Info
Past Weather Observations for Friday, February 5, 2016

NOTE: This archive is for the closest National Weather Service station to Moses Lake. Information may differ from the station used for current weather conditions.

Click here for Long-term Archive

Time Weather Temperature Dewpoint Humidity Pressure Winds Precip Visibility
23:52
Clear
39°F / 4°C 34°F / 1°C 81% 30.15 in
(1021 mb)
S 10.4 mph
(S 17 kph)
- 10SM
22:52
Mostly Cloudy
Fog And Mist
36°F / 2°C 34°F / 1°C 93% 30.12 in
(1020 mb)
SSE 9.2 mph
(SSE 15 kph)
- 6SM
21:52
Overcast
Fog And Mist
36°F / 2°C 34°F / 1°C 93% 30.15 in
(1021 mb)
W 3.5 mph
(W 6 kph)
- 6SM
21:20
Overcast
Fog And Mist
36°F / 2°C 34°F / 1°C 93% 30.12 in
(1020 mb)
NW 8.1 mph
(NW 13 kph)
- 4SM
21:13
Overcast
Fog And Mist
36°F / 2°C 34°F / 1°C 93% 30.12 in
(1020 mb)
NW 10.4 mph
(NW 17 kph)
- 2 1/2SM
21:06
Overcast
Fog And Mist
34°F / 1°C 34°F / 1°C 100% 30.12 in
(1020 mb)
WNW 10.4 mph
(WNW 17 kph)
- 3SM
20:52
Overcast
36°F / 2°C 36°F / 2°C 100% 30.09 in
(1019 mb)
SW 6.9 mph
(SW 11 kph)
- 3SM
19:52
Overcast
Fog And Mist
36°F / 2°C 36°F / 2°C 100% 30.09 in
(1019 mb)
SW 4.6 mph
(SW 7 kph)
- 3SM
19:36
Overcast
Fog And Mist
36°F / 2°C 36°F / 2°C 100% 30.09 in
(1019 mb)
SSW 4.6 mph
(SSW 7 kph)
- 3SM
19:32
Overcast
Fog And Mist
36°F / 2°C 34°F / 1°C 93% 30.09 in
(1019 mb)
SW 3.5 mph
(SW 6 kph)
- 2SM
18:52
Obscured
Fog
36°F / 2°C 34°F / 1°C 93% 30.09 in
(1019 mb)
S 5.8 mph
(S 9 kph)
- 1/2SM
18:16
Obscured
Fog
36°F / 2°C 36°F / 2°C 100% 30.12 in
(1020 mb)
SSW 6.9 mph
(SSW 11 kph)
- 1/2SM
18:04
Mostly Cloudy
Fog And Mist
36°F / 2°C 36°F / 2°C 100% 30.12 in
(1020 mb)
SW 6.9 mph
(SW 11 kph)
- 1 3/4SM
17:54
Partly Cloudy
Fog And Mist
36°F / 2°C 36°F / 2°C 100% 30.12 in
(1020 mb)
SSW 4.6 mph
(SSW 7 kph)
- 5SM
17:52
Clear
Fog And Mist
37°F / 3°C 36°F / 2°C 93% 30.12 in
(1020 mb)
SSW 5.8 mph
(SSW 9 kph)
- 3/4SM
16:52
Partly Cloudy
Fog And Mist
37°F / 3°C 36°F / 2°C 93% 30.15 in
(1021 mb)
Calm - 5SM
15:52
Partly Cloudy
37°F / 3°C 36°F / 2°C 93% 30.21 in
(1023 mb)
Calm - 7SM
14:52
Overcast
37°F / 3°C 36°F / 2°C 93% 30.24 in
(1024 mb)
Calm - 7SM
13:52
Overcast
Fog And Mist
39°F / 4°C 36°F / 2°C 87% 30.27 in
(1025 mb)
SSW 5.8 mph
(SSW 9 kph)
- 5SM
13:15
Mostly Cloudy
39°F / 4°C 36°F / 2°C 87% 30.27 in
(1025 mb)
Calm - 10SM
13:05
Mostly Cloudy
39°F / 4°C 36°F / 2°C 87% 30.27 in
(1025 mb)
Calm - 8SM
12:57
Mostly Cloudy
39°F / 4°C 36°F / 2°C 87% 30.27 in
(1025 mb)
Calm - 8SM
12:52
Mostly Cloudy
39°F / 4°C 36°F / 2°C 87% 30.27 in
(1025 mb)
Calm - 8SM
11:52
Overcast
Fog And Mist
37°F / 3°C 36°F / 2°C 93% 30.3 in
(1026 mb)
Variable 3.5 mph
(Variable 6 kph)
- 4SM
11:14
Overcast
Fog And Mist
36°F / 2°C 36°F / 2°C 100% 30.33 in
(1027 mb)
Calm - 3SM
10:52
Overcast
Fog And Mist
36°F / 2°C 36°F / 2°C 100% 30.33 in
(1027 mb)
Calm - 1 1/4SM
10:34
Overcast
Fog And Mist
36°F / 2°C 36°F / 2°C 100% 30.33 in
(1027 mb)
Calm - 1SM
09:52
Obscured
Fog
36°F / 2°C 34°F / 1°C 93% 30.33 in
(1027 mb)
N 3.5 mph
(N 6 kph)
- M1/4SM
08:52
Obscured
Fog
32°F / 0°C 32°F / 0°C 100% 30.36 in
(1028 mb)
N 4.6 mph
(N 7 kph)
- M1/4SM
07:52
Obscured
Fog
32°F / 0°C 30°F / -1°C 93% 30.36 in
(1028 mb)
Calm - 1/4SM
06:52
Obscured
Fog
30°F / -1°C 30°F / -1°C 100% 30.39 in
(1029 mb)
Calm - 1/4SM
06:39
Obscured
Fog
30°F / -1°C 28°F / -2°C 93% 30.39 in
(1029 mb)
NNW 4.6 mph
(NNW 7 kph)
- 1/2SM
06:28
Overcast
Fog And Mist
30°F / -1°C 28°F / -2°C 93% 30.39 in
(1029 mb)
NNW 3.5 mph
(NNW 6 kph)
- 1 3/4SM
06:22
Overcast
Fog And Mist
30°F / -1°C 28°F / -2°C 93% 30.39 in
(1029 mb)
Calm - 4SM
06:11
Overcast
Fog And Mist
30°F / -1°C 28°F / -2°C 93% 30.39 in
(1029 mb)
Calm - 2SM
05:52
Overcast
Fog And Mist
30°F / -1°C 28°F / -2°C 93% 30.39 in
(1029 mb)
Calm - 4SM
05:42
Mostly Cloudy
Fog And Mist
30°F / -1°C 28°F / -2°C 93% 30.39 in
(1029 mb)
Calm - 3SM
05:34
Partly Cloudy
Fog And Mist
30°F / -1°C 28°F / -2°C 93% 30.39 in
(1029 mb)
Calm - 4SM
04:52
Clear
32°F / 0°C 30°F / -1°C 93% 30.42 in
(1030 mb)
S 5.8 mph
(S 9 kph)
- 7SM
03:52
Clear
Fog And Mist
30°F / -1°C 30°F / -1°C 100% 30.42 in
(1030 mb)
Calm - 6SM
02:52
Partly Cloudy
30°F / -1°C 30°F / -1°C 100% 30.42 in
(1030 mb)
NNE 3.5 mph
(NNE 6 kph)
- 7SM
01:52
Mostly Cloudy
32°F / 0°C 30°F / -1°C 93% 30.42 in
(1030 mb)
Calm - 8SM
00:52
Partly Cloudy
32°F / 0°C 30°F / -1°C 93% 30.42 in
(1030 mb)
Calm - 8SM
Time Weather Temperature Dewpoint Humidity Pressure Winds Precip Visibility


Weather for websites

WeatherForYou.com, LLC is not responsible for any damages or problems caused by this service. Current weather conditions are obtained from the closest station including government and personal stations which may have varying degrees of accuracy. Weather forecasts are derived from the NOAA NDFD. Like all things, this site belongs to Jesus Christ... He just trusts us to maintain it. If you have any questions or comments email webmaster@weatherforyou.com

Copyright © 2016, WeatherForYou.com LLC. All rights reserved.